FALCON 9 DEB (45105 NORAD) Tracking and Keplerian Element Data

This shows tracking and keplerian element data for the satellite.

Feedback or suggestion? Click here.




ElementValue
Catalog45105
NameFALCON 9 DEB
Epoch Orbit368
Epoch Day52.59293187
Epoch Year2020
RAAN118.3575
Inclination52.9981
Eccentricity0.0015321
Argument of Perigee50.7098
Mean Anonmoly309.5288
Mean Motion16.01290073
Decay Rate0.00175529
L11 45105U 20006BP 20052.59293187 .00175529 24315-4 31138-3 0 9993
L22 45105 52.9981 118.3575 0015321 50.7098 309.5288 16.01290073 3683

Live tracking and technical data element details for FALCON 9 DEB (NORAD 45105). FALCON 9 DEB can be tracked NOW for your location showing map with azimuth and elevation plus other details from your city location.

Track the satellite on the map from your city or location and see movement details for azimuth, elevation, latitude, longitude, range, height, and movement on the map or in text.







IsCatalogInMostPopularTable: catalog: 45105, numindb: 6
Update: records affected: 1



GetName: 45105 FALCON 9 DEB

Hit Count: updated at: Mon, 24 Feb 2020 18:43:58 GMT